Weather History for Fallon NAS, NV

Change the Weather History Date:

Saturday, September 22, 2012

  Actual Average Record
Temperature  
Mean Temperature 74 °F -  
Max Temperature 88 °F 77 °F 93 °F (1966)
Min Temperature 59 °F 38 °F 27 °F (1968)
Cooling Degree Days 8    
Growing Degree Days 24 (Base 50)    
Moisture  
Dew Point 34 °F    
Average Humidity 26    
Maximum Humidity 36    
Minimum Humidity 13    
Precipitation  
Precipitation 0.00 in - - ()
Sea Level Pressure  
Sea Level Pressure 29.96 in    
Wind  
Wind Speed 6 mph (West)    
Max Wind Speed 8 mph    
Max Gust Speed 16 mph    
Visibility 10 miles    
Events      
Averages and records for this station are not official NWS values.
T = Trace of Precipitation, MM = Missing Value Source: NWS Daily Summary

Daily Weather History Graph

Daily Weather History Graph

Search for Another Location

Airport:

Trip Planner

Search our weather history database for the weather conditions in past years. The results will help you decide how hot, cold, wet, or windy it might be!

Date:

Astronomy

Sep. 22, 2012 Rise Set
Actual Time 6:42 AM PDT 6:50 PM PDT
Civil Twilight 6:16 AM PDT 7:17 PM PDT
Nautical Twilight 5:44 AM PDT 7:48 PM PDT
Astronomical Twilight 5:12 AM PDT 8:20 PM PDT
Moon 2:03 PM PDT (9/22) No Moon Set
Length of Visible Light 13h 01m
Length of Day
12h 07m
Waxing Crescent, 50% of the Moon is Illuminated
Sep 22
Waxing Crescent
Sep 22
First Quarter
Sep 29
Full
Oct 8
Last Quarter
Oct 15
New

Hourly Weather History & Observations

Time (PDT) Temp. Dew Point Humidity Pressure Visibility Wind Dir Wind Speed Gust Speed Precip Events Conditions
12:56 AM 64.0 °F 34.0 °F 33% 29.94 in 10.0 mi SW 8.1 mph 16.1 mph N/A   Clear
1:56 AM 64.9 °F 34.0 °F 32% 29.95 in 10.0 mi South 4.6 mph - N/A   Clear
2:56 AM 61.0 °F 32.0 °F 34% 29.95 in 10.0 mi South 5.8 mph - N/A   Clear
3:56 AM 59.0 °F 30.9 °F 35% 29.96 in 10.0 mi SSE 5.8 mph - N/A   Clear
4:56 AM 60.1 °F 32.0 °F 35% 29.96 in 10.0 mi SSE 8.1 mph - N/A   Clear
5:56 AM 60.1 °F 32.0 °F 35% 29.97 in 10.0 mi SSE 5.8 mph - N/A   Clear
6:56 AM 59.0 °F 32.0 °F 36% 29.98 in 10.0 mi South 4.6 mph - N/A   Clear
7:56 AM 66.0 °F 32.0 °F 28% 29.98 in 10.0 mi Calm Calm - N/A   Clear
8:56 AM 75.0 °F 35.1 °F 23% 29.99 in 10.0 mi West 5.8 mph - N/A   Clear
9:02 AM 75.2 °F 35.6 °F 24% 30.09 in 10.0 mi West 4.6 mph - N/A   Mostly Cloudy
9:56 AM 78.1 °F 37.9 °F 24% 29.99 in 10.0 mi West 6.9 mph - N/A   Mostly Cloudy
10:56 AM 79.0 °F 36.0 °F 21% 29.99 in 10.0 mi West 4.6 mph - N/A   Mostly Cloudy
11:56 AM 80.1 °F 34.0 °F 19% 29.98 in 10.0 mi NW 3.5 mph - N/A   Overcast
12:56 PM 82.0 °F 34.0 °F 18% 29.97 in 10.0 mi Variable 5.8 mph - N/A   Mostly Cloudy
1:56 PM 84.0 °F 32.0 °F 15% 29.95 in 10.0 mi NNW 8.1 mph - N/A   Mostly Cloudy
2:56 PM 87.1 °F 32.0 °F 14% 29.94 in 10.0 mi North 8.1 mph - N/A   Mostly Cloudy
3:56 PM 87.1 °F 30.9 °F 13% 29.92 in 10.0 mi NE 5.8 mph - N/A   Mostly Cloudy
4:56 PM 88.0 °F 30.9 °F 13% 29.91 in 10.0 mi Calm Calm - N/A   Mostly Cloudy
5:56 PM 86.0 °F 30.9 °F 14% 29.91 in 10.0 mi NNE 5.8 mph - N/A   Mostly Cloudy
6:56 PM 77.0 °F 34.0 °F 21% 29.91 in 10.0 mi North 4.6 mph - N/A   Clear
7:56 PM 71.1 °F 36.0 °F 28% 29.92 in 10.0 mi North 3.5 mph - N/A   Clear
8:56 PM 68.0 °F 35.1 °F 30% 29.92 in 10.0 mi North 6.9 mph - N/A   Clear
9:56 PM 69.1 °F 35.1 °F 29% 29.94 in 10.0 mi West 5.8 mph - N/A   Partly Cloudy
10:56 PM 64.9 °F 34.0 °F 32% 29.95 in 10.0 mi Calm Calm - N/A   Partly Cloudy
11:56 PM 64.9 °F 36.0 °F 34% 29.96 in 10.0 mi WSW 3.5 mph - N/A   Partly Cloudy